SJ-11-02

Satellite information

Favourite Embed

Satellite Type and Status

PAYLOADIN ORBIT

Key statistics

Satellite SJ-11-02 at a glance.

Uptime

5252

Days in orbit

Revolutions

≈ 14.6

Per day

Orbit

SSO

Sun Synchronous Orbit

Inclination

98.3

Latest

Satellite identification and parameters

Extended collection of information and parameters for SJ-11-02.

Object identification

Identified? True

Debris? False

Object name: SJ-11-02

International designator: 2011-039A

Object number (NORAD): 37765

Object ID (CCSDS): 37765

Country: PEOPLES REPUBLIC OF CHINA (PRC)

Current information (Y/N): Y

RCS size: LARGE

Orbital parameters

Period: 98.348 minutes

Inclination: 98.2838 deg

SMA: 7057.798 km

Apoapsis: 687.845 km

Periapsis: 671.481 km

RAAN: 231.7643 deg

Eccentricy: 0.00115926

Argument of periapsis: 120.5307 deg

Mean anomaly: 293.7212 deg

Mean motion: 14.64195001 rev/day

Mean motion (dot): 0.00001054 rev/day2

B* drag term: 0.00020951094 1/REarth

Two-line elements (TLE)

Creation date: Dec. 14, 2025, 3:07 a.m.

Reference frame: TEME

Reference center: EARTH

Epoch: Dec. 13, 2025, 3:52 p.m. UTC

TLE line 0: 0 SJ-11-02

TLE line 1: 1 37765U 11039A 25347.66168288 .00001054 00000-0 20951-3 0 9998

TLE line 2: 2 37765 98.2838 231.7643 0011593 120.5307 293.7212 14.64195001766805

Live tracking on map

Real-time ground track for satellite SJ-11-02.

In-orbit conjunctions

There are no conjunctions computed for SJ-11-02, at the moment. Check back to stay up to date, as we update our databases every day.

Go to all conjunctions

Associated space launch

SJ-11-02 was lifted into orbit during the mission ‘Long March 2C | Shijian 10-02’, on board a Long March 2 space rocket.

The launch took place on July 29, 2011, 7:42 a.m. from Launch Area 94 (SLS-2 / 603).

For more information about the launch, click the button.

Launch to space Long March 2C | Shijian 10-02
Long March 2C | Shijian 10-02

Agency: N/A

Status: Launch Successful

Launch date: July 29, 2011, 7:42 a.m. UTC

Rocket: Long March 2

Launch pad: Launch Area 94 (SLS-2 / 603)

Location: Jiuquan Satellite Launch Center, People's Republic of China

...

Latest news about this satellite

There are no fresh news available about this satellite. Check back as we update our databases every day.


Newsletter sign-up

Weekly statistics, charts and insights to help you stay on top of the space industry.